Wetbulb
75.37 75.52 75.30 75.66 76.14 75.44 75.72 76.07 75.76 75.36 75.18 75.30 74.29 74.19 74.61 75.30 75.70 74.85 75.30 77.31 76.49 76.32 76.57 76.79 76.59 76.23 75.67 75.54 75.30 75.28 74.73 75.37 75.56 74.74 74.33 74.02 74.18 74.26 74.49 75.05 74.95 75.05 74.55
76.36 75.88 76.01 75.62 74.98 75.84 78.56 77.43 76.38 74.92 74.67 74.16 73.68 73.90 73.94 74.90 75.31 75.64 75.33 76.79 76.21 77.03 76.90 76.85 76.86 76.77 76.16 75.70 75.50 75.15 74.70 74.92 76.08 75.98 75.78 75.63 75.53 75.45 74.62 74.60 74.91 74.42 74.71
77.17 77.16 75.57 75.30 75.53 75.76 77.47 76.78 76.92 76.16 75.25 74.28 74.28 74.04 73.64 74.01 74.62 75.72 75.79 76.15 77.11 76.84 77.57 77.46 77.63 77.29 77.46 76.96 76.56 76.21 75.99 75.98 75.98 76.23 76.61 76.58 76.10 75.83 75.73 74.88 74.22 74.77 75.16
77.70 77.15 75.50 75.15 75.80 76.78 75.82 77.15 74.49 76.09 75.16 74.17 73.43 73.38 72.94 73.69 74.22 75.68 75.95 75.61 76.15 76.33 77.50 77.54 77.18 76.85 77.20 77.64 77.58 77.55 76.86 76.23 75.88 75.66 75.96 76.46 76.53 76.02 75.97 75.82 75.58 75.68 75.65
76.97 76.65 75.52 75.42 76.49 75.42 75.66 75.90 75.65 75.08 75.33 74.49 73.86 73.41 73.73 73.64 74.35 74.15 74.79 75.06 76.02 76.11 75.99 77.44 77.14 76.78 76.98 76.27 77.56 77.84 77.76 76.94 76.31 76.10 76.10 76.23 76.23 75.87 75.89 75.88 75.66 75.79 75.64
76.94 76.68 76.00 76.11 76.59 75.64 75.41 75.70 75.75 75.33 75.58 75.27 74.13 72.81 73.93 74.04 73.90 73.51 73.85 74.67 75.36 75.83 76.18 76.77 77.90 77.35 76.86 77.12 77.14 77.48 77.69 77.43 76.84 76.68 76.46 76.10 76.03 75.77 75.59 75.43 75.40 75.28 75.31
76.84 77.26 76.49 76.24 77.21 76.47 75.99 76.73 76.23 75.29 74.19 75.36 76.93 73.28 73.18 74.59 74.79 74.42 73.83 73.62 73.52 74.29 75.41 75.58 76.50 76.52 76.49 76.55 76.33 76.66 77.40 77.40 77.09 77.06 76.61 76.20 76.07 75.87 75.46 75.39 74.93 74.78 74.83
77.04 77.50 77.31 77.19 78.35 76.43 77.96 78.04 77.64 76.91 77.21 75.84 72.76 75.28 69.11 70.74 72.56 73.91 74.34 73.40 73.50 73.81 73.58 74.69 75.76 76.90 77.09 76.15 77.68 76.26 76.76 77.11 77.52 77.37 76.91 76.18 75.79 75.64 75.53 75.13 74.88 74.60 74.41
77.72 77.78 77.82 77.81 76.63 76.89 76.58 76.24 77.02 76.36 73.30 74.37 76.03 72.81 68.70 66.92 69.28 71.96 73.02 73.23 73.31 72.92 73.79 74.67 75.10 75.61 77.06 76.39 76.39 76.66 77.14 76.08 77.04 77.57 77.38 76.71 75.70 74.98 74.81 74.74 74.56 74.28 73.96
77.37 77.42 77.88 78.19 78.02 76.30 75.96 76.79 77.61 76.66 76.66 72.21 75.97 74.47 74.10 73.20 68.78 66.94 70.76 73.13 74.40 74.51 74.86 74.06 74.00 74.66 75.73 75.23 75.98 75.75 75.03 74.23 75.36 76.61 77.09 76.94 76.66 75.93 75.45 75.18 75.06 74.73 74.25
77.78 77.86 78.20 77.97 77.69 77.54 77.20 76.94 77.52 77.82 77.04 74.49 73.38 74.12 75.15 75.04 74.61 71.32 67.35 69.03 72.92 74.21 74.41 74.91 74.92 74.54 75.24 75.90 75.62 75.38 74.39 73.75 74.23 74.87 75.58 76.28 76.46 76.57 76.72 76.62 76.26 76.01 75.74
74.78 76.80 77.10 77.42 77.75 77.48 77.11 76.47 77.56 77.49 77.26 76.00 75.73 75.59 72.08 72.05 71.25 71.08 69.54 70.19 69.56 71.74 73.90 74.83 74.05 74.46 74.85 75.08 76.03 74.89 75.05 74.45 73.20 72.87 73.28 74.12 74.91 75.49 76.48 76.86 77.13 77.23 77.28
68.85 72.33 73.64 74.96 75.19 77.24 77.25 77.65 77.43 77.16 76.63 76.23 75.13 74.13 74.85 73.74 73.02 72.11 71.33 70.12 69.50 71.41 72.16 74.20 74.78 75.04 75.03 75.01 74.83 74.84 75.69 73.66 72.46 71.35 71.41 71.72 72.57 73.39 74.59 75.40 76.27 76.95 77.39
69.25 71.26 71.46 71.86 72.17 72.83 73.94 75.56 75.22 76.30 77.32 75.93 75.93 74.11 73.31 74.21 74.31 73.16 71.86 70.75 68.90 69.80 71.28 73.41 74.11 74.84 75.16 75.55 75.98 75.08 75.56 73.01 71.88 70.60 69.77 69.75 70.21 71.09 71.95 72.91 73.75 74.54 74.30
69.36 70.24 70.78 70.68 71.03 71.28 71.77 73.41 72.24 74.74 75.82 76.43 75.57 76.28 76.24 74.57 73.70 74.77 74.72 74.22 70.91 67.66 68.02 72.21 71.64 76.69 75.24 75.88 75.86 76.47 76.41 73.44 71.84 70.39 69.10 68.45 68.50 68.69 69.18 70.42 70.82 70.37 70.96
69.92 69.85 69.96 70.05 70.24 70.41 70.62 71.47 71.34 73.16 74.01 73.98 75.30 75.88 75.76 75.24 75.85 74.72 74.90 75.59 74.77 71.19 68.53 71.40 72.10 75.13 76.68 75.52 75.96 76.29 76.38 72.98 71.44 70.56 68.91 67.65 67.63 67.57 67.75 68.33 68.62 68.79 69.54
69.37 69.30 69.32 69.27 69.10 69.08 69.65 69.99 70.01 70.54 71.60 72.22 74.00 74.71 75.17 76.53 74.77 76.12 74.48 73.87 74.73 74.46 71.59 72.15 73.28 75.20 78.65 76.97 75.98 75.91 75.62 76.14 75.58 69.87 68.95 67.87 66.99 66.61 66.70 66.76 66.99 67.79 68.42
68.75 68.56 68.72 68.43 68.47 68.98 69.56 69.46 68.26 69.15 69.31 70.60 71.74 73.48 74.18 74.71 75.47 75.63 75.08 74.30 74.61 71.66 73.70 72.21 73.68 73.58 75.82 77.65 77.30 76.40 75.14 74.62 75.87 71.97 68.67 68.09 67.05 65.89 65.04 64.95 64.93 65.25 65.22
68.76 68.98 68.62 67.74 67.80 67.69 68.80 69.68 69.57 69.45 69.53 70.31 71.45 72.11 72.90 74.17 74.33 74.13 73.99 73.85 73.63 74.04 73.44 71.92 71.76 73.44 73.94 74.99 75.68 76.29 76.53 77.08 75.54 73.45 69.00 67.91 66.63 65.69 64.53 63.70 63.16 62.33 61.45
68.28 67.67 67.69 66.72 67.21 66.60 66.62 68.02 68.44 68.37 68.63 69.26 71.31 72.02 72.41 73.29 73.90 74.52 73.84 74.00 74.07 72.77 71.69 70.87 70.49 71.44 71.32 72.59 74.55 72.73 72.81 74.48 73.91 75.03 73.18 71.45 70.47 67.72 65.80 64.46 63.68 63.12 60.56
67.92 67.52 66.44 64.85 64.95 63.93 61.13 61.13 61.86 62.43 65.84 67.62 69.68 71.02 71.77 71.90 69.96 72.04 72.98 73.41 72.98 71.39 70.66 69.29 68.49 68.84 68.64 69.83 71.74 71.86 72.02 72.46 75.00 75.03 74.10 74.38 74.38 74.67 74.28 66.74 69.81 65.74 62.49
67.69 66.96 65.12 63.80 63.04 61.28 58.42 59.67 62.51 61.68 62.87 66.02 67.74 69.03 71.23 69.54 69.15 65.05 66.27 66.37 71.28 71.65 70.96 67.77 67.13 67.39 69.83 69.31 72.65 70.95 71.75 70.69 69.26 74.67 74.78 73.12 74.39 74.03 74.98 75.66 69.99 66.71 62.65
67.41 66.10 63.75 63.86 63.16 59.49 57.32 57.78 58.69 61.83 62.05 64.30 66.42 68.96 69.91 70.84 69.34 71.66 65.20 63.56 64.05 62.86 64.87 70.50 69.34 69.66 70.30 71.57 71.43 70.92 73.55 73.55 71.62 73.05 75.80 71.95 74.02 73.02 74.89 74.91 65.49 64.65 62.14
66.75 64.92 63.14 63.85 63.28 58.71 56.32 55.95 56.81 57.03 63.50 64.06 65.83 68.42 70.25 70.42 71.59 71.39 70.96 68.95 69.34 69.74 69.17 67.98 68.81 71.07 72.26 73.27 72.42 74.46 75.13 75.35 76.25 74.87 78.83 70.82 73.08 72.61 74.62 75.02 65.38 63.59 62.23
65.71 63.84 63.50 63.49 59.60 57.10 55.63 54.78 55.07 55.13 61.69 64.16 67.78 69.17 69.54 69.69 65.29 61.46 70.18 69.71 70.05 70.49 65.09 61.93 62.97 63.18 63.77 62.49 66.21 72.16 71.90 70.53 70.84 72.31 74.93 72.57 72.38 72.17 73.17 73.60 74.38 63.61 61.43
65.40 63.07 63.14 61.58 56.97 56.78 55.50 53.26 52.86 54.20 60.86 63.89 68.05 69.06 62.42 66.58 59.77 58.09 69.79 69.86 68.76 70.12 70.28 70.59 70.48 67.06 64.77 67.62 61.78 67.23 69.33 69.60 70.93 71.68 73.66 72.84 71.85 72.02 70.12 73.13 73.85 71.95 71.94
MSLP
1019.45 1019.62 1019.62 1019.55 1019.35 1020.02 1019.86 1019.77 1019.88 1020.08 1020.43 1019.92 1019.92 1019.83 1019.65 1019.34 1019.32 1019.76 1019.30 1019.40 1019.89 1020.24 1020.40 1020.55 1020.73 1020.88 1021.00 1021.10 1021.16 1021.21 1021.33 1021.52 1021.67 1021.72 1021.75 1021.76 1021.81 1021.84 1021.84 1021.82 1021.83 1021.90 1021.97
1019.19 1019.11 1019.29 1019.42 1019.45 1019.12 1019.27 1019.85 1019.75 1019.70 1019.84 1019.76 1019.32 1019.50 1019.42 1019.32 1019.20 1019.22 1019.14 1018.54 1019.45 1019.90 1020.04 1020.14 1020.33 1020.46 1020.61 1020.73 1020.78 1020.88 1020.97 1021.12 1021.21 1021.29 1021.32 1021.39 1021.42 1021.46 1021.51 1021.50 1021.51 1021.52 1021.54
1019.18 1019.33 1018.92 1018.94 1019.22 1018.97 1019.20 1019.79 1019.38 1019.72 1019.68 1019.46 1019.22 1019.17 1019.01 1019.01 1018.91 1018.80 1018.88 1018.47 1018.30 1019.25 1019.56 1019.71 1019.89 1019.99 1020.06 1020.19 1020.32 1020.42 1020.52 1020.70 1020.76 1020.81 1020.88 1021.01 1021.04 1021.02 1021.07 1021.08 1021.09 1021.09 1021.12
1019.08 1019.03 1018.61 1018.34 1018.30 1019.09 1018.83 1019.13 1019.22 1018.66 1018.71 1019.05 1018.98 1018.75 1018.33 1018.39 1018.33 1018.38 1018.47 1018.41 1017.86 1017.66 1018.60 1018.95 1019.32 1019.41 1019.50 1019.63 1019.75 1019.83 1019.98 1020.11 1020.20 1020.27 1020.36 1020.40 1020.49 1020.50 1020.46 1020.47 1020.48 1020.56 1020.60
1018.52 1018.68 1018.33 1018.03 1018.38 1018.27 1018.24 1018.05 1018.21 1018.24 1018.63 1018.32 1018.57 1018.82 1018.33 1018.05 1017.91 1017.62 1017.55 1017.74 1017.82 1017.74 1017.46 1017.74 1018.30 1018.73 1018.87 1018.94 1019.11 1019.20 1019.34 1019.48 1019.59 1019.66 1019.74 1019.74 1019.77 1019.87 1019.93 1019.92 1019.90 1019.93 1019.99
1018.14 1018.11 1017.86 1017.87 1018.04 1017.84 1017.56 1017.55 1018.19 1018.10 1018.05 1018.35 1017.78 1017.78 1017.61 1017.36 1017.11 1017.14 1017.01 1017.11 1017.00 1017.04 1017.07 1017.12 1017.27 1017.58 1018.04 1018.20 1018.37 1018.45 1018.57 1018.76 1018.86 1018.92 1018.96 1019.00 1019.10 1019.16 1019.24 1019.31 1019.28 1019.25 1019.36
1017.70 1017.70 1017.30 1017.08 1017.36 1017.26 1017.32 1017.33 1017.59 1017.88 1017.47 1017.09 1017.66 1017.29 1016.98 1016.71 1016.64 1016.54 1016.29 1016.14 1016.07 1016.12 1016.33 1016.47 1016.61 1016.38 1016.35 1017.12 1017.40 1017.70 1017.83 1017.95 1018.02 1018.11 1018.23 1018.26 1018.38 1018.49 1018.52 1018.58 1018.58 1018.61 1018.66
1017.27 1016.98 1016.74 1016.50 1016.46 1016.85 1017.02 1017.06 1017.10 1016.98 1017.07 1016.32 1016.81 1016.82 1015.91 1015.24 1014.97 1015.06 1015.34 1015.40 1015.33 1015.30 1015.31 1015.60 1015.84 1015.95 1016.05 1015.84 1015.90 1016.67 1017.02 1017.24 1017.28 1017.33 1017.43 1017.46 1017.64 1017.78 1017.76 1017.86 1017.93 1017.93 1017.92
1016.46 1016.46 1016.51 1016.49 1016.45 1016.35 1016.40 1016.32 1016.34 1016.30 1015.98 1015.63 1016.20 1016.27 1015.42 1014.32 1014.10 1014.07 1014.47 1014.81 1014.65 1014.64 1014.55 1014.58 1014.86 1015.13 1015.45 1015.66 1015.48 1015.59 1016.01 1016.30 1016.49 1016.64 1016.64 1016.70 1016.95 1017.02 1017.07 1017.16 1017.22 1017.25 1017.23
1015.76 1015.70 1015.57 1015.73 1015.63 1015.74 1015.76 1015.69 1015.80 1015.70 1015.78 1015.18 1015.52 1015.67 1015.74 1015.14 1014.42 1013.86 1013.80 1013.98 1014.61 1014.65 1014.36 1014.17 1013.98 1014.18 1014.68 1014.97 1014.88 1014.84 1014.99 1015.38 1015.55 1015.85 1016.01 1016.06 1016.26 1016.34 1016.37 1016.43 1016.48 1016.48 1016.48
1015.27 1014.90 1014.84 1014.88 1014.78 1014.88 1014.76 1014.93 1014.99 1015.07 1015.04 1014.82 1014.30 1014.27 1014.77 1014.57 1014.81 1014.60 1013.34 1013.21 1013.20 1012.96 1013.34 1013.52 1013.52 1013.36 1013.74 1014.08 1013.84 1013.93 1014.22 1014.55 1014.94 1015.21 1015.46 1015.65 1015.57 1015.62 1015.66 1015.63 1015.65 1015.68 1015.67
1013.90 1013.64 1013.98 1014.14 1014.08 1014.01 1014.05 1014.02 1013.98 1014.11 1014.21 1014.11 1013.99 1013.72 1013.83 1013.89 1013.75 1013.51 1012.99 1012.79 1012.49 1012.13 1012.20 1012.12 1012.38 1012.62 1012.78 1012.81 1013.15 1013.33 1013.59 1013.91 1014.07 1014.36 1014.73 1014.98 1014.91 1014.86 1014.90 1014.91 1014.90 1014.95 1014.97
1014.07 1013.96 1014.11 1014.01 1013.72 1013.63 1013.61 1013.37 1013.16 1013.12 1013.20 1013.29 1013.27 1013.05 1012.92 1012.89 1012.66 1012.22 1011.52 1011.27 1011.24 1011.03 1010.96 1011.01 1011.35 1011.51 1011.69 1011.85 1011.83 1012.22 1012.69 1013.19 1013.41 1013.71 1014.05 1014.17 1014.20 1014.27 1014.23 1014.28 1014.26 1014.24 1014.36
1014.60 1014.45 1014.41 1014.19 1013.87 1013.49 1013.19 1013.24 1012.99 1012.60 1012.15 1012.02 1012.09 1012.23 1012.06 1011.78 1011.60 1011.43 1011.44 1011.18 1010.69 1010.23 1010.05 1010.22 1010.40 1010.59 1010.62 1010.79 1010.86 1011.43 1011.80 1012.35 1012.49 1012.90 1013.27 1013.36 1013.36 1013.52 1013.56 1013.69 1013.72 1013.75 1013.88
1014.59 1014.43 1014.38 1014.09 1013.74 1013.39 1013.03 1012.69 1012.14 1011.76 1011.72 1011.35 1011.00 1011.06 1011.09 1010.81 1011.03 1010.17 1009.94 1010.26 1010.62 1009.88 1009.07 1008.69 1009.23 1009.61 1009.90 1010.02 1010.25 1010.64 1011.00 1011.15 1011.62 1011.93 1012.24 1012.36 1012.49 1012.68 1012.92 1013.08 1013.22 1013.30 1013.37
1014.79 1014.51 1014.21 1013.85 1013.49 1013.12 1012.76 1012.40 1011.66 1010.96 1010.81 1010.59 1010.38 1010.08 1010.02 1009.83 1010.11 1010.02 1009.81 1009.68 1009.93 1009.73 1008.73 1008.47 1008.11 1008.19 1008.57 1009.15 1009.54 1009.97 1010.19 1010.55 1010.91 1011.20 1011.44 1011.60 1011.79 1012.02 1012.21 1012.37 1012.62 1012.84 1012.98
1014.59 1014.18 1013.79 1013.37 1013.02 1012.62 1012.24 1011.86 1011.39 1010.89 1010.30 1009.87 1009.56 1009.20 1008.78 1008.79 1008.81 1009.15 1009.20 1009.06 1007.55 1009.01 1008.84 1007.90 1008.16 1007.98 1008.27 1008.51 1009.05 1009.32 1009.53 1009.61 1009.43 1010.10 1010.63 1010.90 1011.11 1011.28 1011.41 1011.57 1011.87 1012.21 1012.44
1014.19 1013.78 1013.31 1012.87 1012.46 1012.01 1011.54 1011.04 1010.41 1009.85 1009.28 1008.74 1008.40 1008.23 1007.78 1007.72 1007.67 1007.96 1008.17 1008.01 1008.01 1008.30 1008.50 1007.95 1007.42 1007.32 1007.83 1008.07 1008.59 1009.21 1009.11 1008.44 1008.38 1008.52 1009.33 1009.81 1010.15 1010.42 1010.47 1010.67 1011.01 1011.43 1011.79
1013.53 1013.06 1012.59 1012.13 1011.73 1011.31 1010.70 1009.93 1009.21 1008.53 1007.94 1007.34 1006.91 1006.74 1006.53 1006.65 1006.62 1006.54 1006.91 1006.99 1007.41 1007.65 1008.03 1007.97 1007.10 1007.10 1006.92 1006.93 1007.70 1008.44 1008.43 1008.28 1007.75 1007.80 1008.50 1008.88 1009.20 1009.60 1009.71 1009.82 1010.17 1010.58 1011.01
1012.82 1012.39 1011.94 1011.59 1011.15 1010.51 1009.83 1008.79 1007.83 1007.16 1006.61 1005.94 1005.51 1005.24 1005.19 1005.21 1005.35 1005.52 1005.76 1006.12 1006.50 1006.80 1007.00 1006.95 1006.89 1006.98 1006.76 1006.78 1006.36 1006.57 1006.97 1007.41 1007.10 1006.81 1006.91 1007.27 1008.00 1008.65 1008.90 1009.05 1009.37 1009.61 1010.10
1012.20 1011.86 1011.54 1011.08 1010.40 1009.73 1009.15 1008.19 1007.11 1006.26 1005.26 1004.63 1004.14 1003.80 1003.79 1004.01 1004.27 1004.48 1004.58 1005.10 1005.80 1006.35 1006.48 1006.12 1006.14 1006.47 1006.51 1006.68 1006.68 1006.71 1006.48 1005.86 1005.71 1006.23 1005.94 1005.91 1006.68 1007.30 1007.53 1008.15 1008.15 1008.89 1009.25
1011.65 1011.41 1011.01 1010.50 1009.73 1009.20 1008.47 1007.35 1005.78 1004.94 1004.35 1003.66 1003.06 1002.60 1002.51 1002.87 1003.31 1003.83 1004.06 1004.34 1004.79 1005.40 1005.53 1005.43 1005.43 1005.66 1006.31 1006.64 1006.62 1006.59 1006.33 1005.28 1005.09 1004.80 1005.35 1005.35 1005.31 1005.14 1005.47 1005.54 1006.14 1007.24 1008.22
1011.52 1011.07 1010.62 1009.98 1009.06 1008.66 1007.66 1006.51 1005.40 1003.97 1003.26 1002.80 1002.32 1001.80 1001.62 1001.62 1002.10 1002.53 1003.67 1004.13 1004.72 1005.11 1005.22 1005.38 1005.24 1005.13 1005.22 1005.56 1005.96 1006.19 1005.93 1005.71 1005.08 1004.20 1004.49 1004.42 1004.68 1004.58 1004.71 1004.59 1005.31 1006.10 1007.08
1011.17 1010.54 1010.09 1009.49 1008.57 1007.84 1006.77 1005.52 1004.54 1003.52 1002.17 1001.82 1001.42 1000.86 1000.81 1000.89 1001.23 1001.82 1002.54 1003.29 1003.85 1004.07 1004.33 1004.75 1004.72 1004.62 1004.75 1005.10 1005.56 1005.40 1005.35 1005.35 1005.44 1004.88 1004.54 1004.32 1003.72 1003.70 1004.12 1004.30 1004.78 1005.52 1006.29
1010.58 1010.08 1009.52 1009.06 1008.53 1007.08 1005.91 1004.89 1004.07 1002.82 1001.43 1000.81 1000.06 999.89 999.94 1000.50 1000.89 1001.51 1002.05 1002.52 1002.69 1002.57 1002.88 1003.38 1003.73 1003.96 1004.37 1004.68 1004.97 1005.17 1005.10 1005.21 1004.86 1004.38 1004.04 1003.88 1003.35 1003.14 1003.22 1003.59 1003.84 1004.96 1005.69
1010.28 1009.71 1009.09 1008.96 1008.36 1006.59 1005.24 1004.29 1003.47 1001.99 1000.61 999.96 999.59 999.49 1000.07 1000.20 1000.51 1001.36 1001.74 1001.77 1002.04 1001.72 1001.98 1002.10 1002.83 1003.34 1003.87 1003.97 1004.32 1004.82 1004.39 1003.46 1004.09 1003.70 1002.60 1003.21 1003.05 1002.79 1002.60 1002.93 1003.12 1004.44 1005.15
Wind_Speed
4 5 4 5 3 3 4 5 4 5 4 8 7 9 9 9 8 4 7 11 9 11 13 13 12 11 11 10 11 10 10 10 10 10 10 10 10 10 11 12 10 10 10
6 6 6 7 7 6 1 6 4 4 5 7 7 9 9 10 9 7 8 3 10 11 13 14 13 12 12 12 12 13 12 12 11 12 13 12 12 12 13 12 12 11 10
8 9 7 7 7 7 6 5 7 5 6 7 9 9 9 11 10 10 8 8 7 14 14 14 14 14 14 14 14 14 13 13 13 13 12 12 14 13 13 14 14 13 12
10 9 9 9 8 6 7 5 8 6 7 7 7 8 8 10 11 11 10 8 9 7 15 16 16 16 15 15 16 15 15 15 15 15 15 15 14 14 15 15 15 15 14
12 10 10 9 8 9 8 8 7 7 7 7 7 8 9 10 11 11 12 12 12 9 9 14 18 17 17 17 16 16 16 17 17 16 16 17 17 16 16 16 16 16 16
12 11 10 11 10 10 10 8 9 9 8 8 9 8 9 9 10 11 12 12 14 13 11 11 9 11 19 18 16 17 17 18 17 18 18 18 18 18 17 17 17 17 16
13 12 11 12 10 12 11 12 9 10 11 10 6 10 11 12 13 12 12 13 14 14 13 12 9 9 9 19 18 17 17 17 18 18 19 19 18 18 18 18 18 17 17
13 13 14 13 13 11 13 12 12 9 9 10 9 7 10 9 11 12 11 12 15 12 14 15 15 13 12 10 11 19 18 17 18 18 18 18 17 18 19 19 18 17 17
13 15 14 12 11 11 11 14 14 15 12 11 10 8 6 9 8 5 8 10 12 11 13 14 14 13 13 13 11 12 16 16 18 18 18 17 14 16 17 18 17 17 17
13 13 14 13 12 11 11 11 12 13 12 13 8 12 13 13 11 10 9 7 7 9 11 10 11 12 13 12 16 14 9 16 17 18 19 15 14 14 15 16 17 17 17
14 14 14 14 14 11 12 14 14 13 11 13 13 9 10 11 12 11 12 11 12 10 9 10 10 9 12 13 12 12 14 16 14 15 15 15 17 16 17 16 15 17 18
9 11 11 12 12 12 13 13 14 15 13 14 12 11 13 10 10 11 13 13 14 12 9 10 11 11 10 10 14 13 8 11 15 15 14 16 16 16 17 16 16 16 16
11 11 12 12 11 12 14 14 13 14 15 14 15 14 13 14 14 15 14 13 12 11 11 11 9 10 11 11 12 13 13 13 13 14 13 14 15 15 16 15 16 15 15
11 12 12 13 14 16 13 12 13 13 14 14 18 15 14 16 13 14 15 13 14 13 12 14 9 10 10 11 10 11 10 14 15 14 14 13 14 13 15 15 15 14 13
10 12 13 14 15 15 16 16 14 16 15 15 16 16 15 14 14 15 14 14 13 15 14 12 13 13 10 10 11 12 12 12 15 14 14 15 13 12 12 13 13 12 11
12 12 13 13 14 15 15 15 15 16 16 15 13 16 16 14 15 12 14 11 12 15 16 14 12 11 11 10 10 12 12 8 13 13 13 13 12 11 12 12 12 12 11
13 13 14 14 14 16 16 15 17 19 19 19 18 19 19 17 14 12 12 12 14 13 14 14 14 13 11 11 12 12 12 12 11 18 16 14 14 13 13 13 12 12 12
13 13 14 15 16 17 17 18 19 19 20 20 20 20 21 15 18 16 13 16 14 13 12 18 14 13 14 14 13 14 13 13 12 15 20 17 15 14 14 13 12 13 12
14 14 15 15 16 18 20 20 21 20 21 21 21 21 22 21 19 15 16 14 14 13 12 14 15 12 13 11 13 12 13 13 11 11 14 15 15 15 15 14 14 14 13
14 13 15 16 18 19 22 23 23 23 23 22 21 22 21 22 21 19 17 17 15 14 12 13 11 12 12 9 12 13 13 13 12 13 15 13 15 16 15 13 15 16 14
12 13 15 17 19 19 15 21 22 23 23 23 23 21 22 23 26 21 15 15 13 11 12 13 12 12 12 12 11 8 11 12 13 12 12 11 12 12 12 14 11 16 15
13 13 16 19 20 17 25 30 25 17 19 22 20 19 20 21 23 16 18 16 12 16 15 12 11 13 14 9 10 8 9 13 13 11 12 11 11 11 11 12 17 15 18
12 14 16 19 21 20 26 28 26 16 15 17 19 15 16 15 19 20 13 9 13 10 12 12 15 15 14 15 13 12 12 12 12 10 9 11 11 12 10 9 14 20 17
11 13 16 19 20 17 28 28 20 16 14 16 18 18 14 17 16 17 14 14 18 20 21 16 18 16 14 11 13 14 13 12 10 11 5 10 11 11 9 11 17 17 17
12 13 15 18 19 21 27 25 18 13 12 16 16 16 16 15 12 12 13 15 16 16 14 16 17 12 12 11 11 6 11 9 9 11 12 12 10 11 10 10 10 16 15
12 13 14 14 20 21 22 15 18 10 9 9 14 12 10 15 11 15 16 14 13 15 14 13 13 11 10 12 10 10 12 9 9 9 8 11 11 11 9 10 9 9 8
Wind_Direction
232 238 244 257 282 233 269 252 260 262 256 269 255 253 258 267 269 255 284 161 196 219 223 229 232 232 238 245 251 254 257 261 237 246 251 253 254 254 259 266 264 260 256
228 241 228 233 264 253 248 259 252 253 242 259 246 248 256 264 263 266 273 272 186 212 218 224 229 230 233 239 243 246 248 247 258 243 241 241 241 244 254 264 264 263 263
235 260 249 244 226 243 248 227 251 226 261 243 254 263 258 250 258 259 261 276 188 197 211 219 224 227 229 234 238 241 240 241 242 254 255 251 244 240 243 253 258 258 256
243 251 250 252 245 219 245 211 256 231 230 244 256 256 250 250 251 255 255 254 259 265 191 205 218 225 229 234 237 237 239 239 238 239 246 249 248 242 240 242 245 248 249
239 244 259 262 257 256 233 245 231 245 269 245 243 253 251 249 249 250 246 246 251 258 264 189 201 219 228 235 237 238 235 236 237 237 238 242 245 244 244 245 245 244 245
243 238 244 254 258 256 253 229 254 237 227 249 261 247 251 250 246 246 250 249 246 245 248 254 211 215 220 229 233 237 236 236 233 235 237 238 240 241 241 242 243 243 243
250 245 246 243 241 252 247 260 237 250 253 233 249 248 248 241 244 250 250 246 250 245 243 251 243 249 217 209 216 228 236 239 237 237 238 238 236 239 240 240 241 242 240
254 253 251 249 240 237 244 249 248 241 246 250 240 264 259 249 238 228 238 245 245 246 245 235 242 246 252 258 221 211 225 234 242 240 240 241 236 237 237 238 239 240 239
256 258 261 254 259 249 252 246 242 243 244 250 218 242 273 250 260 250 231 254 256 243 240 244 244 244 239 251 256 230 203 215 232 241 240 243 240 240 240 241 240 240 241
273 264 258 253 249 248 255 258 261 244 238 246 230 226 237 271 270 263 246 224 237 252 253 255 248 237 236 240 242 252 262 219 226 232 242 244 244 247 247 245 245 242 242
274 270 267 267 262 253 246 252 251 247 241 249 242 228 229 241 241 255 258 246 218 210 220 209 235 242 233 236 242 239 220 226 220 230 237 238 240 243 245 247 243 244 243
297 280 275 283 274 265 256 252 252 250 247 242 252 249 237 230 233 232 242 247 259 264 234 239 222 226 241 232 224 240 240 221 218 224 229 234 240 244 243 244 245 248 248
303 307 316 297 287 285 282 274 257 251 248 245 240 240 242 241 238 249 248 244 251 243 239 229 230 242 235 239 243 216 213 213 217 225 224 232 241 241 245 244 242 244 245
300 314 299 292 289 288 275 271 269 267 259 246 242 237 239 237 237 237 247 258 261 251 244 238 244 242 228 237 236 181 229 202 213 218 224 229 239 236 243 238 237 239 241
301 302 306 297 295 292 287 286 270 266 262 257 246 244 241 235 247 244 230 226 234 249 248 235 223 215 241 237 225 228 227 204 208 210 214 225 229 234 240 232 234 234 232
302 303 300 299 297 294 290 287 280 269 259 259 254 246 241 237 238 238 245 240 224 234 250 249 247 240 213 212 224 216 235 226 203 218 220 224 229 225 230 229 232 233 225
296 296 299 300 297 296 293 284 279 281 274 267 258 253 245 239 236 232 232 229 229 223 244 243 248 250 235 227 234 232 233 237 237 200 215 222 227 220 222 224 220 225 222
289 287 290 293 296 292 288 281 277 273 271 268 258 251 247 240 236 233 230 234 233 233 240 248 250 247 230 230 221 233 243 237 236 203 204 210 218 222 221 219 210 217 220
289 291 294 297 294 294 286 275 271 266 262 259 255 247 243 236 235 233 229 229 227 232 239 249 260 251 252 231 218 232 237 241 245 232 192 207 211 220 222 213 208 209 216
293 296 298 306 298 302 294 281 273 269 261 259 253 246 241 233 229 227 230 230 237 241 240 246 250 248 256 260 242 224 222 226 242 233 225 228 206 216 218 212 209 207 208
294 300 309 307 310 309 299 289 274 267 260 255 255 245 238 236 231 229 225 227 225 229 237 241 251 268 263 263 253 245 248 253 210 228 239 225 212 216 219 217 222 211 207
296 310 314 316 316 312 306 306 277 263 256 256 261 247 242 232 230 225 219 238 222 224 235 246 247 236 240 244 239 233 238 236 233 219 210 244 248 230 227 214 191 200 201
302 306 313 315 316 317 310 306 324 271 250 250 259 244 241 236 228 225 204 205 232 256 249 242 256 252 249 244 239 235 238 259 252 251 207 234 232 233 241 224 173 188 187
308 313 319 323 317 312 315 309 315 297 249 242 247 251 238 237 225 220 213 205 226 236 236 236 238 248 248 233 221 237 235 236 252 258 192 237 234 229 223 237 166 178 189
320 316 325 335 321 315 313 306 311 294 251 243 250 241 235 238 230 187 207 221 229 232 217 216 226 244 233 238 243 229 222 216 227 229 215 233 233 242 225 231 187 179 186
312 325 328 338 316 318 315 306 320 287 258 235 234 241 221 239 205 184 212 225 232 236 234 240 216 222 229 230 224 233 256 201 216 242 202 199 235 240 232 231 217 154 177